• Em Portugal
  • Lista de países
  • Para 7 dias
  • Temperatura da água
  • Mapas de satélite
  • Mapa do tempo
  • Widgets de tempo
  • user-avatar
    Iniciar Sessão

    Previsão horária em Stepanakert

    Hoje, 24 Setembro, Segunda-feira

    Tempo Temperatura Precipitação Vento Pressão Humidade
    00:00 +19°C° 0 mm 1 m/s 694 mmHg 76%
    01:00 +18°C° 0 mm 1 m/s 694 mmHg 76%
    02:00 +18°C° 0 mm 1 m/s 694 mmHg 76%
    03:00 +18°C° 0 mm 1 m/s 694 mmHg 76%
    04:00 +18°C° 0.1 mm 1 m/s 694 mmHg 75%
    05:00 +18°C° 0.1 mm 1 m/s 695 mmHg 74%
    06:00 +16°C° 0.1 mm 1 m/s 695 mmHg 74%
    07:00 +19°C° 0 mm 1 m/s 695 mmHg 67%
    08:00 +21°C° 0 mm 1 m/s 696 mmHg 60%
    09:00 +23°C° 0 mm 2 m/s 696 mmHg 53%
    10:00 +24°C° 0 mm 2 m/s 696 mmHg 50%
    11:00 +25°C° 0 mm 2 m/s 696 mmHg 46%
    12:00 +26°C° 0 mm 3 m/s 696 mmHg 42%
    13:00 +26°C° 0.1 mm 3 m/s 696 mmHg 43%
    14:00 +26°C° 0.1 mm 3 m/s 696 mmHg 43%
    15:00 +26°C° 0.1 mm 3 m/s 696 mmHg 44%
    16:00 +25°C° 0 mm 2 m/s 696 mmHg 48%
    17:00 +24°C° 0 mm 2 m/s 696 mmHg 52%
    18:00 +21°C° 0 mm 2 m/s 696 mmHg 56%
    19:00 +22°C° 0 mm 1 m/s 696 mmHg 59%
    20:00 +21°C° 0 mm 1 m/s 696 mmHg 62%
    21:00 +20°C° 0 mm 1 m/s 696 mmHg 65%
    22:00 +20°C° 0 mm 1 m/s 696 mmHg 66%
    23:00 +20°C° 0 mm 1 m/s 696 mmHg 66%

    Amanhã, 25 Setembro, Terça-feira

    Tempo Temperatura Precipitação Vento Pressão Humidade
    00:00 +19°C° 0 mm 1 m/s 695 mmHg 67%
    01:00 +19°C° 0 mm 1 m/s 695 mmHg 67%
    02:00 +19°C° 0 mm 1 m/s 695 mmHg 67%
    03:00 +18°C° 0 mm 1 m/s 695 mmHg 67%
    04:00 +18°C° 0 mm 1 m/s 694 mmHg 67%
    05:00 +18°C° 0 mm 1 m/s 694 mmHg 68%
    06:00 +18°C° 0 mm 1 m/s 694 mmHg 68%
    07:00 +20°C° 0 mm 1 m/s 694 mmHg 62%
    08:00 +22°C° 0 mm 1 m/s 695 mmHg 56%
    09:00 +23°C° 0 mm 2 m/s 695 mmHg 50%
    10:00 +25°C° 0 mm 2 m/s 694 mmHg 46%
    11:00 +26°C° 0 mm 2 m/s 694 mmHg 42%
    12:00 +27°C° 0 mm 2 m/s 694 mmHg 39%
    13:00 +27°C° 0 mm 2 m/s 693 mmHg 39%
    14:00 +28°C° 0 mm 2 m/s 693 mmHg 39%
    15:00 +28°C° 0 mm 2 m/s 692 mmHg 38%
    16:00 +26°C° 0 mm 2 m/s 692 mmHg 45%
    17:00 +25°C° 0 mm 1 m/s 692 mmHg 51%
    18:00 +23°C° 0 mm 1 m/s 691 mmHg 57%
    19:00 +22°C° 0 mm 1 m/s 692 mmHg 58%
    20:00 +22°C° 0 mm 1 m/s 692 mmHg 60%
    21:00 +22°C° 0 mm 1 m/s 692 mmHg 61%
    22:00 +21°C° 0 mm 1 m/s 692 mmHg 62%
    23:00 +21°C° 0 mm 1 m/s 692 mmHg 63%

    Depois de amanhã, 26 Setembro, Quarta-feira

    Tempo Temperatura Precipitação Vento Pressão Humidade
    00:00 +21°C° 0 mm 1 m/s 692 mmHg 64%
    01:00 +20°C° 0 mm 1 m/s 692 mmHg 65%
    02:00 +20°C° 0 mm 1 m/s 692 mmHg 66%
    03:00 +20°C° 0 mm 1 m/s 693 mmHg 67%
    04:00 +19°C° 0 mm 1 m/s 693 mmHg 68%
    05:00 +19°C° 0 mm 1 m/s 693 mmHg 69%
    06:00 +19°C° 0 mm 1 m/s 693 mmHg 70%
    07:00 +21°C° 0.1 mm 1 m/s 694 mmHg 63%
    08:00 +21°C° 0.1 mm 2 m/s 694 mmHg 57%
    09:00 +24°C° 0.1 mm 3 m/s 695 mmHg 51%
    10:00 +25°C° 0.1 mm 3 m/s 695 mmHg 50%
    11:00 +25°C° 0.1 mm 3 m/s 695 mmHg 49%
    12:00 +26°C° 0.1 mm 3 m/s 695 mmHg 48%
    13:00 +25°C° 0.2 mm 3 m/s 695 mmHg 48%
    14:00 +25°C° 0.2 mm 3 m/s 694 mmHg 49%
    15:00 +25°C° 0.2 mm 3 m/s 694 mmHg 50%
    16:00 +23°C° 0.1 mm 4 m/s 694 mmHg 56%
    17:00 +22°C° 0.1 mm 4 m/s 694 mmHg 62%
    18:00 +20°C° 0.1 mm 4 m/s 694 mmHg 69%
    19:00 +19°C° 0 mm 4 m/s 695 mmHg 72%
    20:00 +19°C° 0 mm 3 m/s 695 mmHg 74%
    21:00 +18°C° 0 mm 3 m/s 696 mmHg 77%
    22:00 +18°C° 0 mm 3 m/s 696 mmHg 79%
    23:00 +17°C° 0 mm 2 m/s 696 mmHg 80%

    27 Setembro, Quinta-feira

    Tempo Temperatura Precipitação Vento Pressão Humidade
    00:00 +17°C° 0 mm 2 m/s 695 mmHg 81%
    01:00 +17°C° 0 mm 2 m/s 696 mmHg 82%
    02:00 +16°C° 0 mm 2 m/s 696 mmHg 83%
    03:00 +16°C° 0 mm 2 m/s 696 mmHg 83%
    04:00 +16°C° 0 mm 2 m/s 696 mmHg 83%
    05:00 +16°C° 0 mm 2 m/s 696 mmHg 83%
    06:00 +16°C° 0 mm 2 m/s 696 mmHg 83%
    07:00 +17°C° 0 mm 2 m/s 697 mmHg 79%
    08:00 +17°C° 0 mm 2 m/s 697 mmHg 74%
    09:00 +18°C° 0 mm 2 m/s 698 mmHg 69%
    10:00 +19°C° 0 mm 2 m/s 697 mmHg 66%
    11:00 +20°C° 0 mm 3 m/s 697 mmHg 62%
    12:00 +21°C° 0 mm 3 m/s 697 mmHg 59%
    13:00 +21°C° 0 mm 3 m/s 697 mmHg 58%
    14:00 +21°C° 0 mm 3 m/s 697 mmHg 58%
    15:00 +21°C° 0 mm 3 m/s 697 mmHg 57%
    16:00 +20°C° 0 mm 3 m/s 697 mmHg 62%
    17:00 +19°C° 0 mm 3 m/s 697 mmHg 66%
    18:00 +18°C° 0 mm 2 m/s 697 mmHg 71%
    19:00 +18°C° 0 mm 2 m/s 697 mmHg 74%
    20:00 +17°C° 0 mm 2 m/s 698 mmHg 78%
    21:00 +16°C° 0 mm 2 m/s 698 mmHg 82%
    22:00 +16°C° 0 mm 2 m/s 698 mmHg 82%
    23:00 +16°C° 0 mm 2 m/s 698 mmHg 83%

    28 Setembro, Sexta-feira

    Tempo Temperatura Precipitação Vento Pressão Humidade
    00:00 +16°C° 0 mm 1 m/s 698 mmHg 83%
    01:00 +15°C° 0 mm 1 m/s 698 mmHg 84%
    02:00 +15°C° 0 mm 1 m/s 698 mmHg 84%
    03:00 +15°C° 0 mm 1 m/s 698 mmHg 85%
    04:00 +15°C° 0 mm 1 m/s 698 mmHg 85%
    05:00 +15°C° 0 mm 1 m/s 698 mmHg 85%
    06:00 +15°C° 0 mm 1 m/s 698 mmHg 85%
    07:00 +16°C° 0 mm 2 m/s 699 mmHg 80%
    08:00 +17°C° 0 mm 2 m/s 699 mmHg 75%
    09:00 +18°C° 0 mm 2 m/s 699 mmHg 70%
    10:00 +19°C° 0 mm 3 m/s 699 mmHg 66%
    11:00 +20°C° 0 mm 3 m/s 699 mmHg 62%
    12:00 +21°C° 0 mm 3 m/s 699 mmHg 59%
    13:00 +21°C° 0 mm 3 m/s 698 mmHg 59%
    14:00 +21°C° 0 mm 3 m/s 698 mmHg 59%
    15:00 +21°C° 0 mm 3 m/s 698 mmHg 59%
    16:00 +20°C° 0 mm 2 m/s 698 mmHg 64%
    17:00 +19°C° 0 mm 2 m/s 697 mmHg 68%
    18:00 +18°C° 0 mm 2 m/s 697 mmHg 73%
    19:00 +19°C° 0 mm 1 m/s 697 mmHg 75%
    20:00 +18°C° 0 mm 1 m/s 697 mmHg 78%
    21:00 +18°C° 0 mm 1 m/s 697 mmHg 81%
    22:00 +16°C° 0 mm 1 m/s 697 mmHg 81%
    23:00 +15°C° 0 mm 0 m/s 697 mmHg 82%

    29 Setembro, Sábado

    Tempo Temperatura Precipitação Vento Pressão Humidade
    00:00 +15°C° 0 mm 0 m/s 696 mmHg 82%
    01:00 +15°C° 0 mm 0 m/s 696 mmHg 82%
    02:00 +14°C° 0 mm 0 m/s 696 mmHg 82%
    03:00 +14°C° 0 mm 0 m/s 696 mmHg 82%
    04:00 +14°C° 0 mm 0 m/s 696 mmHg 82%
    05:00 +14°C° 0 mm 0 m/s 696 mmHg 82%
    06:00 +14°C° 0 mm 0 m/s 696 mmHg 81%
    07:00 +18°C° 0 mm 1 m/s 696 mmHg 74%
    08:00 +20°C° 0 mm 1 m/s 696 mmHg 66%
    09:00 +21°C° 0 mm 2 m/s 696 mmHg 58%
    10:00 +23°C° 0 mm 2 m/s 696 mmHg 54%
    11:00 +24°C° 0 mm 2 m/s 696 mmHg 50%
    12:00 +25°C° 0 mm 3 m/s 696 mmHg 47%
    13:00 +26°C° 0 mm 3 m/s 695 mmHg 46%
    14:00 +26°C° 0 mm 3 m/s 695 mmHg 46%
    15:00 +26°C° 0 mm 3 m/s 694 mmHg 46%
    16:00 +25°C° 0 mm 2 m/s 694 mmHg 52%
    17:00 +23°C° 0 mm 2 m/s 694 mmHg 59%
    18:00 +22°C° 0 mm 1 m/s 694 mmHg 65%
    19:00 +21°C° 0 mm 1 m/s 694 mmHg 67%
    20:00 +20°C° 0 mm 1 m/s 694 mmHg 69%
    21:00 +20°C° 0 mm 1 m/s 694 mmHg 71%
    22:00 +20°C° 0 mm 1 m/s 694 mmHg 70%
    23:00 +19°C° 0 mm 1 m/s 694 mmHg 70%
    Mostrar mais

    3.3.7123123